Погода в Кузнецком

Россия / Челябинская область     55°29′32″N   60°38′21″E
темп.,
°C
ветер,
м/с
пор.,
м/с
влажн.,
%
обл.,
%
осадки,
мм/ч
давл.,
гПа
погр.,
м
6 марта, сб
сб623:00−7зсз41188100 1.2 1002596
02:00−11з5138626 0.0 1006359
05:00−13з5118813 0.0 1009251
08:00−15зюз46880 0.0 101095
11:00−8з611780 0.0 1010951
14:00−6з6107510 0.0 10101268
17:00−6з5108053 0.1 1009944
20:00−11зюз348880 0.0 101167
7 марта, вс
вс723:00−13зюз339164 0.0 101324
02:00−15зсз229292 0.0 101220
05:00−16зюз129096 0.0 101320
08:00−16в1190100 0.0 101220
11:00−12вюв2288100 0.0 1011239
14:00−10всв2389100 0.1 1009352
17:00−10св3493100 0.1 1008297
20:00−13сз2396100 0.1 100838
8 марта, пн
пн823:00−17зсз479168 0.1 1009116
02:00−19зсз35930 0.0 101070
05:00−20зюз33930 0.0 101020
08:00−19ююз349227 0.0 101059
11:00−13ю589264 0.1 1008314
14:00−8ююз71183100 0.3 1005797
17:00−5юз4890100 0.4 1004883
20:00−8ююз5108669 0.0 1005181
9 марта, вт
вт923:00−8ююз5108765 0.0 1005280
02:00−9ююз4988100 0.0 1004163
05:00−8ююз51288100 0.0 1003285
08:00−6ююз71586100 0.0 1002567
11:00−4з597894 0.0 10031146
14:00−4з6106864 0.0 10051467
17:00−5з487732 0.0 1006528
20:00−11з34830 0.0 100722
10 марта, ср
ср1023:00−13з238833 0.0 100921
02:00−16зюз129165 0.0 100920
05:00−17зсз119478 0.0 100920
08:00−17з229195 0.0 100923
11:00−12з478295 0.0 1009631
14:00−10зсз467874 0.0 1009863
17:00−11зсз468187 0.0 1008823
20:00−16зсз348856 0.0 101039